Content
SEND FEEDBACK

Daily
Averages
Monthly
Summary
United States of America

ST. LOUIS, MISSOURI


Home > North America > United States > Missouri
Elevation: 535 feet     Latitude: 38 45N     Longitude: 090 22W

WEATHER
 
SELECT A DAY
Number of Records: 196,500;   Date Range: 1/1/95 - 8/30/14
 
SHARE

PRINT THIS DATA

[ ← Previous Day ]
WEATHER ALMANAC - APRIL 28, 2013
[ Next Day → ]
[ °C ]   °F
Weather ElementAverageHighLow
Temperature52.7 °F57.9 °F (6:54 pm)44.6 °F (11:38 pm)
Dewpoint48.5 °F51.1 °F (12:54 am)42.8 °F (11:38 pm)
Humidity86.1 %97 % (12:54 am)74 % (4:54 pm)
Barometer29.94 in29.98 in (11:54 am)29.91 in (2:54 am)
Wind Speed5 mph12.7 mph (8:54 am)
Weather ElementAverage
Visibility7.3 mi
Wind DirectionS (182.3 °)

Weather ElementTotal
Precipitation---
Heating Degree Days13.8 (Base 65)
Growing Degree Days1.3 (Base 50)
Averaged from 31 records on April 28, 2013
WEATHER CONDITIONS BREAKOUT
WIND DIRECTION BREAKOUT
WEATHER BY HOUR - APRIL 28, 2013
[ °C ]   °F
Local TimeTemperatureDewpointHumidityBarometerVisibilityWind DirectionWind SpeedGust SpeedPrecipitationEventsConditions
12:54 AM52.0 °F51.1 °F97 %29.94 in9.0 miWest (260°)3.5 mphOvercast
1:54 AM52.0 °F50.0 °F93 %29.92 in6.0 miWNW (290°)5.8 mphOvercast
2:54 AM52.0 °F50.0 °F93 %29.91 in4.0 miWNW (290°)6.9 mphOvercast
3:54 AM52.0 °F50.0 °F93 %29.91 in3.0 miWNW (290°)8.1 mphOvercast
4:54 AM52.0 °F50.0 °F93 %29.91 in9.0 miWNW (290°)5.8 mphOvercast
5:54 AM52.0 °F50.0 °F93 %29.92 in3.0 miNW (310°)9.2 mphOvercast
6:54 AM52.0 °F50.0 °F93 %29.94 in6.0 miWNW (290°)5.8 mphOvercast
7:54 AM53.6 °F50.0 °F88 %29.96 in6.0 miWest (280°)8.1 mphOvercast
8:54 AM53.1 °F50.0 °F89 %29.96 in5.0 miWNW (300°)12.7 mphOvercast
9:26 AM53.6 °F50.0 °F88 %29.96 in9.0 miWNW (300°)10.4 mphOvercast
9:54 AM54.0 °F50.0 °F86 %29.96 in10.0 miWNW (290°)8.1 mphOvercast
10:54 AM54.0 °F48.9 °F83 %29.97 in10.0 miWNW (300°)12.7 mphOvercast
11:54 AM55.0 °F48.9 °F80 %29.98 in10.0 miWNW (290°)9.2 mphOvercast
12:12 PM55.4 °F48.2 °F77 %29.97 in10.0 miWNW (290°)5.8 mphOvercast
12:54 PM55.0 °F48.9 °F80 %29.97 in10.0 miWest (270°)8.1 mphOvercast
1:54 PM55.9 °F48.9 °F77 %29.96 in10.0 miWSW (240°)9.2 mphOvercast
2:54 PM55.9 °F50.0 °F80 %29.95 in10.0 miWSW (240°)8.1 mphOvercast
3:54 PM55.9 °F48.9 °F77 %29.94 in10.0 miWest (260°)6.9 mphOvercast
4:54 PM57.0 °F48.9 °F74 %29.94 in10.0 miWest (260°)3.5 mphOvercast
5:54 PM57.0 °F48.9 °F74 %29.92 in10.0 miCalmOvercast
6:54 PM57.9 °F50.0 °F75 %29.92 in10.0 miCalmOvercast
7:54 PM57.0 °F48.9 °F74 %29.92 in10.0 miCalmOvercast
8:54 PM53.1 °F48.9 °F86 %29.93 in10.0 miSSE (150°)3.5 mphOvercast
9:12 PM53.6 °F48.2 °F82 %29.92 in10.0 miSSE (160°)3.5 mphScattered Clouds
9:54 PM50.0 °F46.9 °F89 %29.93 in10.0 miCalmClear
10:54 PM48.9 °F46.9 °F93 %29.93 in7.0 miCalmClear
11:16 PM48.2 °F44.6 °F87 %29.92 in1.8 miCalmClear
11:25 PM48.2 °F46.4 °F93 %29.92 in3.0 miCalmClear
11:28 PM46.4 °F44.6 °F93 %29.92 in1.5 miCalmClear
11:38 PM44.6 °F42.8 °F93 %29.92 in0.5 miCalmFogFog
11:54 PM45.0 °F44.1 °F97 %29.93 in1.0 miCalmClear
Hourly data recorded from KSUS, located miles away from St. Louis, Missouri







STORIES FROM OUR PARTNERS